Lebanon, NH

3:06 PM EST on January 19, 2018 (GMT -0500)
Lebanon Municipal

Weather History for KLEB - July, 2014

Change the Weather History Date:

Thursday, July 10, 2014

  Actual Average Record
Temperature  
Mean Temperature 68 °F -  
Max Temperature 80 °F 82 °F 101 °F (1988)
Min Temperature 55 °F 58 °F 42 °F (1942)
Cooling Degree Days 4    
Growing Degree Days 18 (Base 50)    
Moisture  
Dew Point 53 °F    
Average Humidity 65    
Maximum Humidity 94    
Minimum Humidity 32    
Precipitation  
Precipitation 0.00 in - - ()
Sea Level Pressure  
Sea Level Pressure 30.06 in    
Wind  
Wind Speed 3 mph (North)    
Max Wind Speed 9 mph    
Max Gust Speed 17 mph    
Visibility 9 miles    
Events      
Averages and records for this station are not official NWS values.
T = Trace of Precipitation, MM = Missing Value Source: NWS Daily Summary

Daily Weather History Graph

Daily Weather History Graph

Search for Another Location

Airport or City:

Trip Planner

Search our weather history database for the weather conditions in past years. The results will help you decide how hot, cold, wet, or windy it might be!

Date:

Astronomy

Jul. 10, 2014 Rise Set
Actual Time 5:17 AM EDT 8:31 PM EDT
Civil Twilight 4:42 AM EDT 9:06 PM EDT
Nautical Twilight 3:56 AM EDT 9:51 PM EDT
Astronomical Twilight 3:01 AM EDT 10:46 PM EDT
Moon 6:39 PM EDT (7/10) 3:28 AM EDT (7/10)
Length of Visible Light 16h 24m
Length of Day
15h 13m
Waxing Gibbous, 95% of the Moon is Illuminated
Jul 10
Waxing Gibbous
Jul 12
Full
Jul 18
Last Quarter
Jul 26
New
Aug 3
First Quarter

Hourly Weather History & Observations

Time (EDT) Temp. Dew Point Humidity Pressure Visibility Wind Dir Wind Speed Gust Speed Precip Events Conditions
12:53 AM 64.9 °F 62.1 °F 90% 29.92 in 10.0 mi Variable 3.5 mph - N/A   Scattered Clouds
1:53 AM 63.0 °F 60.1 °F 90% 29.93 in 10.0 mi SSE 3.5 mph - N/A   Clear
2:53 AM 60.1 °F 57.9 °F 93% 29.94 in 4.0 mi Calm Calm - N/A   Clear
3:33 AM 60.1 °F 57.0 °F 90% 29.98 in 1.8 mi Calm Calm - N/A   Partly Cloudy
3:49 AM 59.0 °F 57.2 °F 94% 29.98 in 3.0 mi Calm Calm - N/A   Clear
4:53 AM 59.0 °F 55.0 °F 87% 30.00 in 10.0 mi Calm Calm - N/A   Clear
6:53 AM 60.1 °F 57.0 °F 90% 30.04 in 10.0 mi Calm Calm - N/A   Clear
7:53 AM 64.0 °F 55.9 °F 75% 30.06 in 10.0 mi SSE 4.6 mph - N/A   Clear
9:53 AM 72.0 °F 54.0 °F 53% 30.07 in 10.0 mi North 6.9 mph - N/A   Clear
10:53 AM 73.9 °F 51.1 °F 45% 30.07 in 10.0 mi North 9.2 mph - N/A   Clear
11:53 AM 75.9 °F 48.0 °F 37% 30.08 in 10.0 mi Variable 6.9 mph 17.3 mph N/A   Partly Cloudy
12:53 PM 77.0 °F 46.0 °F 33% 30.08 in 10.0 mi Variable 3.5 mph - N/A   Clear
1:53 PM 78.1 °F 46.0 °F 32% 30.08 in 10.0 mi North - - N/A   Clear
2:53 PM 79.0 °F 46.9 °F 32% 30.07 in 10.0 mi NNW 6.9 mph - N/A   Mostly Cloudy
3:53 PM 79.0 °F 48.0 °F 34% 30.08 in 10.0 mi NW 8.1 mph - N/A   Clear
4:53 PM 80.1 °F 48.0 °F 32% 30.07 in 10.0 mi NNW 5.8 mph - N/A   Partly Cloudy
5:53 PM 78.1 °F 48.9 °F 36% 30.07 in 10.0 mi North 6.9 mph - N/A   Scattered Clouds
6:53 PM 77.0 °F 50.0 °F 39% 30.08 in 10.0 mi North 5.8 mph - N/A   Partly Cloudy
7:53 PM 69.1 °F 57.9 °F 68% 30.10 in 10.0 mi Calm Calm - N/A   Clear
8:53 PM 62.1 °F 55.9 °F 80% 30.12 in 10.0 mi Calm Calm - N/A   Clear
9:53 PM 59.0 °F 55.0 °F 87% 30.14 in 10.0 mi Calm Calm - N/A   Clear
10:53 PM 57.0 °F 54.0 °F 89% 30.16 in 10.0 mi Calm Calm - N/A   Clear
11:53 PM 55.9 °F 53.1 °F 90% 30.17 in 10.0 mi NNE 3.5 mph - N/A   Partly Cloudy